Regional Weather Roundup
Issued by NWS Green Bay, WI

Home | Current Version | Previous Version | Graphics & Text | Print | Product List | Glossary Off
Versions: 1 2 3 4 5 6 7 8 9 10 11 12 13 14 15 16 17 18 19 20 21 22 23 24 25 26 27 28 29 30 31 32 33 34 35 36 37 38 39 40 41 42 43 44 45 46 47 48 49 50

000
ASUS43 KGRB 021300
RWRGRB

NORTH-CENTRAL AND NORTHEAST WISCONSIN REGIONAL WEATHER ROUNDUP
NATIONAL WEATHER SERVICE GREEN BAY WI
800 AM CDT MON MAY 02 2016

WIZ005-009-010>012-018-019-021400-
NORTH CENTRAL WISCONSIN

CITY           SKY/WX    TMP DP  RH WIND       PRES   REMARKS
IRONWOOD         N/A     37  34  87 CALM      30.10F
MANITOWISH WTR NOT AVBL
ARBOR VITAE    NOT AVBL
EAGLE RIVER    NOT AVBL
LAND O LAKES   NOT AVBL
RHINELANDER    SUNNY     45  33  63 CALM      30.13S
PHILLIPS       SUNNY     43  36  75 CALM      30.12S
ANTIGO         NOT AVBL
TOMAHAWK       NOT AVBL
MERRILL        NOT AVBL
$$

WIZ013-073-021400-
NORTHEAST WISCONSIN

CITY           SKY/WX    TMP DP  RH WIND       PRES   REMARKS
IRON MOUNTAIN  SUNNY     44  31  60 NW6       30.11S
MARINETTE      SUNNY     46  34  61 NW5       30.11S
$$

WIZ017-030-035>037-045-021400-
CENTRAL WISCONSIN

CITY           SKY/WX    TMP DP  RH WIND       PRES   REMARKS
MEDFORD        NOT AVBL
WAUSAU         SUNNY     46  35  65 CALM      30.11S
MOSINEE        SUNNY     43  36  75 CALM      30.13S
MARSHFIELD     SUNNY     49  37  63 NE5       30.11S
WISC RAPIDS    SUNNY     48  34  58 NE5       30.13F
STEVENS POINT  NOT AVBL
WAUPACA        SUNNY     46  36  68 N5        30.12S
SHAWANO        SUNNY     46  36  67 CALM      30.12F
CLINTONVILLE   NOT AVBL
WAUTOMA        SUNNY     47  34  60 NE7       30.12S
$$

WIZ038-039-048-051-021400-
FOX VALLEY

CITY           SKY/WX    TMP DP  RH WIND       PRES   REMARKS
NWS GREEN BAY  SUNNY     47  36  65 N7        30.11F
APPLETON       SUNNY     45  34  65 N8        30.10S
OSHKOSH        SUNNY     46  35  65 N7        30.10F
FOND DU LAC    SUNNY     47  39  74 N8        30.10S
$$

WIZ022-050-052-021400-
EAST CENTRAL WISCONSIN

CITY           SKY/WX    TMP DP  RH WIND       PRES   REMARKS
EPHRAIM        NOT AVBL
STURGEON BAY   SUNNY     43  34  70 N7        30.13S
MANITOWOC      NOT AVBL
SHEBOYGAN      SUNNY     47  37  68 N8        30.08F
$$

LMZ563-521-522-541>543-021400-
LAKESHORE

STATION/POSITION TIME  TEMP    WIND        PRES    VSBY  WAVE
                       AIR SEA DIR/SP/G                  HT/PER
                 (UTC) (F)     (DEG/KT/KT) (MB)    (MI)  (FT/S)
SHEBOYGAN LKSHOR 1200   45     340/  9/ 11 1019.7R
KEWAUNEE LKSHORE 1200   42     290/  4/  5 1018.5R
NORTHPORT PIER   1200   41     310/ 11/ 14 1019.0S
N MID LAKE BUOY  1150   39 38  320/  6/  6 1019.2R         0
CHAMBERS ISLAND  1240   46     320/  4/  8 1019.6S
MENOMINEE LKSHOR 1200   43     330/ 10/ 11 1018.4R
$$




USA.gov is the U.S. government's official web portal to all federal, state and local government web resources and services.